Weather History for KDRT - July, 2013

Change the Weather History Date:

Monday, July 15, 2013

  Actual Average Record
Temperature  
Mean Temperature 82 °F 86 °F  
Max Temperature 87 °F 97 °F 107 °F (2000)
Min Temperature 77 °F 75 °F 65 °F (1975)
Degree Days  
Heating Degree Days 0 0  
Month to date heating degree days 0 0  
Since 1 June heating degree days 0 0  
Since 1 July heating degree days 0 0  
Cooling Degree Days 17 21  
Month to date cooling degree days 315 309  
Year to date cooling degree days 1846 1639  
Since 1 June cooling degree days 940 880  
Growing Degree Days 31 (Base 50)    
Moisture  
Dew Point 70 °F    
Average Humidity 65    
Maximum Humidity 85    
Minimum Humidity 45    
Precipitation  
Precipitation 0.03 in 0.06 in 1.26 in (1994)
Month to date precipitation 0.03 0.90  
Year to date precipitation 5.01 10.45  
Sea Level Pressure  
Sea Level Pressure 29.85 in    
Wind  
Wind Speed 10 mph (East)    
Max Wind Speed 20 mph    
Max Gust Speed 29 mph    
Visibility 10 miles    
Events Rain    
T = Trace of Precipitation, MM = Missing Value Source: NWS Daily Summary

Daily Weather History Graph

Daily Weather History Graph

Search for Another Location

Airport or City:

Trip Planner

Search our weather history database for the weather conditions in past years. The results will help you decide how hot, cold, wet, or windy it might be!

Date:

Astronomy

Jul. 15, 2013 Rise Set
Actual Time 6:54 AM CDT 8:44 PM CDT
Civil Twilight 6:27 AM CDT 9:11 PM CDT
Nautical Twilight 5:55 AM CDT 9:43 PM CDT
Astronomical Twilight 5:21 AM CDT 10:17 PM CDT
Moon 1:37 PM CDT (7/15) 12:33 AM CDT (7/15)
Length of Visible Light 14h 43m
Length of Day
13h 50m
Waxing Crescent, 45% of the Moon is Illuminated
Jul 15
Waxing Crescent
Jul 15
First Quarter
Jul 22
Full
Jul 29
Last Quarter
Aug 6
New

Hourly Weather History & Observations

Time (CDT) Temp. Heat Index Dew Point Humidity Pressure Visibility Wind Dir Wind Speed Gust Speed Precip Events Conditions
12:53 AM 86.0 °F 86.8 °F 63.0 °F 46% 29.73 in 10.0 mi ESE 12.7 mph - N/A   Clear
1:53 AM 87.1 °F 89.9 °F 66.9 °F 51% 29.74 in 10.0 mi SE 13.8 mph 25.3 mph N/A   Clear
2:53 AM 84.9 °F 87.6 °F 66.9 °F 55% 29.75 in 10.0 mi SE 11.5 mph 27.6 mph N/A   Clear
3:53 AM 84.0 °F 86.5 °F 66.9 °F 56% 29.75 in 10.0 mi SE 15.0 mph 24.2 mph N/A   Clear
4:53 AM 82.9 °F 85.8 °F 68.0 °F 60% 29.75 in 10.0 mi ESE 10.4 mph 20.7 mph N/A   Clear
5:53 AM 82.0 °F 84.9 °F 68.0 °F 62% 29.76 in 10.0 mi ESE 15.0 mph - N/A   Mostly Cloudy
6:53 AM 81.0 °F 84.1 °F 69.1 °F 67% 29.79 in 10.0 mi East 12.7 mph - 0.00 in   Mostly Cloudy
7:53 AM 80.1 °F 82.9 °F 69.1 °F 69% 29.78 in 10.0 mi East 11.5 mph 21.9 mph 0.00 in   Clear
8:53 AM 80.1 °F 82.9 °F 69.1 °F 69% 29.82 in 10.0 mi East 11.5 mph - 0.00 in Rain Light Rain
9:11 AM 80.6 °F 83.9 °F 69.8 °F 70% 29.89 in 10.0 mi East 10.4 mph - 0.00 in   Mostly Cloudy
9:53 AM 80.1 °F 82.9 °F 69.1 °F 69% 29.86 in 10.0 mi East 6.9 mph - 0.00 in   Overcast
10:53 AM 79.0 °F - 71.1 °F 77% 29.88 in 10.0 mi ENE 5.8 mph - 0.00 in Rain Light Rain
11:30 AM 78.8 °F - 73.4 °F 83% 29.94 in 10.0 mi ENE 4.6 mph - 0.01 in Rain Light Rain
11:53 AM 78.1 °F - 73.9 °F 87% 29.90 in 10.0 mi East 6.9 mph - 0.01 in   Overcast
12:39 PM 78.8 °F - 73.4 °F 83% 29.94 in 9.0 mi East 9.2 mph - 0.02 in Rain Light Rain
12:53 PM 78.1 °F - 73.9 °F 87% 29.88 in 10.0 mi East 9.2 mph - 0.02 in   Mostly Cloudy
1:53 PM 80.1 °F 84.5 °F 73.9 °F 81% 29.87 in 10.0 mi East 12.7 mph - N/A   Scattered Clouds
2:01 PM 80.6 °F 85.4 °F 73.4 °F 79% 29.93 in 10.0 mi ESE 12.7 mph - N/A   Mostly Cloudy
2:19 PM 80.6 °F 85.4 °F 73.4 °F 79% 29.93 in 10.0 mi ESE 11.5 mph - N/A   Mostly Cloudy
2:53 PM 82.0 °F 87.4 °F 73.0 °F 74% 29.87 in 10.0 mi ESE 11.5 mph - N/A   Mostly Cloudy
3:53 PM 82.0 °F 86.7 °F 72.0 °F 71% 29.86 in 10.0 mi SE 6.9 mph - N/A   Overcast
4:53 PM 82.9 °F 88.0 °F 72.0 °F 69% 29.87 in 10.0 mi East 5.8 mph - N/A   Mostly Cloudy
5:53 PM 82.9 °F 87.5 °F 71.1 °F 67% 29.86 in 10.0 mi ENE 5.8 mph - N/A   Clear
6:53 PM 82.9 °F 87.5 °F 71.1 °F 67% 29.85 in 10.0 mi NE 4.6 mph - N/A   Partly Cloudy
7:53 PM 80.1 °F 83.2 °F 70.0 °F 71% 29.86 in 10.0 mi NNE 10.4 mph - N/A   Overcast
8:53 PM 79.0 °F - 69.1 °F 72% 29.88 in 10.0 mi NE 9.2 mph - N/A   Overcast
9:53 PM 79.0 °F - 71.1 °F 77% 29.90 in 10.0 mi ENE 12.7 mph - N/A   Overcast
10:53 PM 78.1 °F - 69.1 °F 74% 29.92 in 10.0 mi East 11.5 mph - N/A   Scattered Clouds
11:53 PM 77.0 °F - 69.1 °F 76% 29.95 in 10.0 mi East 8.1 mph - N/A   Overcast